STARLINK-5703, 55593

Orbit data source: Space-Track

STARLINK-5703, 55593 is a payload satellite owned by SpaceX/Seattle (US) in LEO that was launched on Sun, 12 Feb 2023 UTC via an FALCON 9 launch vehicle from the Air Force Eastern Test Range (AFETR). Payload-class satellites include a variety of spacecraft equipped with specific instruments for various scientific and technological missions. These include communications satellites like Starlink; space stations such as the ISS; scientific satellites like the Hubble; Earth observation satellites from companies like Planet Labs, Umbra, and HawkEye 360; GPS; miniature CubeSats for education and research; and military/defense satellites.

Loading next visibility...
Identifier
55593, 2023-020AA
Orbit
LEO
Country
Flag of USUS
Related business
Manufacturer
SpaceX/Seattle
Mission
Operational Commercial Communications
Bus & Motor
STARLINK, Unknown motor
Mass
305 kg wet, ~290 kg dry
Launch date (UTC)
2023-02-12 (3 years ago)
Launch vehicle
FALCON 9
Launch site
Air Force Eastern Test Range (AFETR)
Object type
Payload
Rocket body
Debris
Shape & HBR
Box + 1 Pan, 4.4 m
Radar Cross Section
13.562 m², Large (>1 m²)

Expand to show TLE details & history
Last TLE update: 15 hours ago

TLE from 15 hours ago
0 STARLINK-5703
1 55593U 23020AA  25260.25937532 -.00000933  00000-0 -53979-4 0  9999
2 55593  43.0041 226.7769 0001445 268.7916  91.2761 15.02532292142838
Epoch: 2025-09-17T06:13Z
TLE epoch observation values (Epoch: 2025-09-17T06:13:30.027Z)
Latitude
-0.00001°
Longitude
136.96388°
Altitude
558.892 km
Speed
7.584 km/s
True Right ascension
15h 07m 06s
True Declination
0° 00' 00"
Sunlit
Object was in daylight at epoch
Visualization orbit readout
Latitude
Unknown
Longitude
Unknown
Altitude
Unknown
Speed
Unknown
Apparent Right ascension
Unknown
Apparent Declination
Unknown
Sunlit
N/A
Visualization observer readout
Local Sidereal Time
14:11:02
Azimuth
Unknown
Elevation
Unknown
Doppler factor
Unknown
Orbital elements
Apogee altitude
562.017 km
Perigee altitude
560.011 km
Semi-major axis
6,939.151 km
Eccentricity
0.00014
Inclination
43.0041°
RAAN
226.7769°
Arg. of periapsis
268.7916°
True anomaly
91.29265°
Mean anomaly
91.2761°
Eccentric anomaly
91.28438°
Mean motion
3.75477 °/min
Orbital period
95.88 mins
BSTAR
-0.000053979
Loading maneuver chart data...
Computing Atmospheric mass density...
Loading historical data...
Loading historical data...
Loading historical data...
Loading historical data...
Loading historical data...
Loading historical data...
Loading historical data...

Documentation

Showing up to 5 results
|